Location: Dittelbrunn
(50.0738°N, 10.2196°E)
Time: 23:03:37
(UTC+00:00)

Cosmos 2279 Rocket - Pass Details

Date: 18 September 2020
Orbit: 963 x 979 km, 82.9° (Epoch: 30 October)

Event Time Altitude Azimuth Distance (km) Brightness Sun altitude
Exits shadow 20:20:51 68° 121° (ESE) 1,050 3.8 -26.7°
Maximum altitude 20:21:15 70° 95° (E) 1,038 3.9 -26.8°
Drops below altitude 10° 20:27:30 10° 13° (NNE) 2,744 6.7 -27.5°
Sets 20:30:02 0° 12° (NNE) 3,696 7.4 -27.8°
